| time (UTC) | temp C | wind direction | speed KPH | gust KPH | rain 1hr cm | rain 24hr cm | rain mn cm | humidity % | barometer mb |
| 20260510232512 | 31 | 98 | 6.4 | 14.5 | 0.00 | 0.00 | 0.00 | 57 | 1011.0 |
| 20260510232012 | 31 | 101 | 14.5 | 19.3 | 0.00 | 0.00 | 0.00 | 57 | 1010.8 |
| 20260510231512 | 31 | 267 | 1.6 | 19.3 | 0.00 | 0.00 | 0.00 | 58 | 1010.7 |
| 20260510231012 | 31 | 136 | 3.2 | 9.7 | 0.00 | 0.00 | 0.00 | 58 | 1010.5 |
| 20260510230512 | 32 | 82 | 4.8 | 9.7 | 0.00 | 0.00 | 0.00 | 57 | 1010.4 |
| 20260510230012 | 32 | 97 | 3.2 | 16.1 | 0.00 | 0.00 | 0.00 | 58 | 1010.1 |
| 20260510225512 | 32 | 86 | 6.4 | 16.1 | 0.00 | 0.00 | 0.00 | 58 | 1010.0 |
| 20260510225012 | 32 | 98 | 3.2 | 16.1 | 0.00 | 0.00 | 0.00 | 58 | 1010.2 |
| 20260510224512 | 32 | 120 | 11.3 | 19.3 | 0.00 | 0.00 | 0.00 | 57 | 1010.0 |
| 20260510224012 | 32 | 224 | 8.0 | 19.3 | 0.00 | 0.00 | 0.00 | 58 | 1010.0 |
| 20260510223511 | 32 | 121 | 1.6 | 20.9 | 0.00 | 0.00 | 0.00 | 58 | 1010.1 |
| 20260510222512 | 32 | 219 | 6.4 | 14.5 | 0.00 | 0.00 | 0.00 | 57 | 1010.0 |
| 20260510222011 | 32 | 118 | 1.6 | 14.5 | 0.00 | 0.00 | 0.00 | 57 | 1010.1 |
| 20260510221512 | 32 | 247 | 6.4 | 14.5 | 0.00 | 0.00 | 0.00 | 58 | 1010.1 |
| 20260510221011 | 32 | 170 | 1.6 | 16.1 | 0.00 | 0.00 | 0.00 | 59 | 1010.2 |
| 20260510220511 | 32 | 134 | 6.4 | 16.1 | 0.00 | 0.00 | 0.00 | 59 | 1010.2 |
| 20260510220011 | 32 | 111 | 3.2 | 14.5 | 0.00 | 0.00 | 0.00 | 59 | 1010.2 |
| 20260510215011 | 32 | 103 | 1.6 | 22.5 | 0.00 | 0.00 | 0.00 | 59 | 1010.5 |
| 20260510214511 | 32 | 252 | 3.2 | 11.3 | 0.00 | 0.00 | 0.00 | 59 | 1010.6 |
| 20260510214011 | 32 | 103 | 9.7 | 11.3 | 0.00 | 0.00 | 0.00 | 59 | 1010.7 |
| 20260510213511 | 32 | 114 | 4.8 | 12.9 | 0.00 | 0.00 | 0.00 | 60 | 1010.8 |
| 20260510213011 | 32 | 108 | 3.2 | 12.9 | 0.00 | 0.00 | 0.00 | 59 | 1010.8 |
| 20260510212511 | 32 | 133 | 1.6 | 9.7 | 0.00 | 0.00 | 0.00 | 60 | 1010.9 |
| 20260510212011 | 31 | 28 | 4.8 | 9.7 | 0.00 | 0.00 | 0.00 | 61 | 1011.0 |
| 20260510211511 | 31 | 135 | 1.6 | 14.5 | 0.00 | 0.00 | 0.00 | 60 | 1011.0 |
| 20260510211011 | 31 | 105 | 12.9 | 14.5 | 0.00 | 0.00 | 0.00 | 60 | 1011.0 |
| 20260510210511 | 31 | 104 | 4.8 | 12.9 | 0.00 | 0.00 | 0.00 | 60 | 1011.1 |
| 20260510210011 | 32 | 121 | 6.4 | 12.9 | 0.00 | 0.00 | 0.00 | 61 | 1011.1 |
| 20260510205010 | 32 | 136 | 6.4 | 16.1 | 0.00 | 0.00 | 0.00 | 61 | 1011.1 |
| 20260510203010 | 31 | 251 | 1.6 | 11.3 | 0.00 | 0.00 | 0.00 | 63 | 1011.0 |
| 20260510202010 | 31 | 66 | 3.2 | 14.5 | 0.00 | 0.08 | 0.00 | 63 | 1011.0 |
| 20260510201510 | 31 | 137 | 0.0 | 6.4 | 0.00 | 0.18 | 0.00 | 64 | 1011.0 |
| 20260510201010 | 31 | 206 | 1.6 | 6.4 | 0.00 | 0.46 | 0.00 | 65 | 1011.1 |
| 20260510200510 | 31 | 125 | 3.2 | 12.9 | 0.00 | 0.61 | 0.00 | 65 | 1011.3 |
| 20260510200010 | 31 | 288 | 3.2 | 19.3 | 0.00 | 0.61 | 0.00 | 65 | 1011.3 |
| 20260510195510 | 31 | 157 | 3.2 | 19.3 | 0.00 | 0.61 | 0.00 | 64 | 1011.4 |
| 20260510194510 | 30 | 266 | 4.8 | 8.0 | 0.00 | 0.61 | 0.00 | 67 | 1011.3 |
| 20260510194010 | 30 | 175 | 3.2 | 12.9 | 0.00 | 0.61 | 0.00 | 66 | 1011.4 |
| 20260510193510 | 30 | 209 | 8.0 | 12.9 | 0.00 | 0.61 | 0.00 | 68 | 1011.4 |
| 20260510193009 | 30 | 111 | 0.0 | 14.5 | 0.00 | 0.61 | 0.00 | 67 | 1011.5 |
| 20260510192509 | 30 | 251 | 4.8 | 14.5 | 0.00 | 0.61 | 0.00 | 67 | 1011.6 |
| 20260510192010 | 30 | 250 | 6.4 | 11.3 | 0.00 | 0.61 | 0.00 | 68 | 1011.7 |
| 20260510191510 | 30 | 245 | 1.6 | 11.3 | 0.00 | 0.61 | 0.00 | 68 | 1011.7 |
| 20260510191009 | 30 | 321 | 0.0 | 16.1 | 0.00 | 0.61 | 0.00 | 69 | 1011.7 |
| 20260510190010 | 29 | 227 | 3.2 | 14.5 | 0.00 | 0.61 | 0.00 | 70 | 1011.7 |
| 20260510185509 | 29 | 142 | 14.5 | 14.5 | 0.00 | 0.61 | 0.00 | 70 | 1011.7 |
| 20260510185009 | 29 | 171 | 1.6 | 11.3 | 0.00 | 0.61 | 0.00 | 70 | 1011.8 |
| 20260510184509 | 29 | 119 | 6.4 | 16.1 | 0.00 | 0.61 | 0.00 | 70 | 1011.9 |
| 20260510183509 | 29 | 110 | 4.8 | 14.5 | 0.00 | 0.61 | 0.00 | 71 | 1011.9 |
| 20260510183009 | 28 | 166 | 14.5 | 14.5 | 0.00 | 0.61 | 0.00 | 71 | 1012.1 |
| 20260510182509 | 28 | 112 | 11.3 | 17.7 | 0.00 | 0.61 | 0.00 | 72 | 1012.2 |
| 20260510182009 | 28 | 152 | 11.3 | 17.7 | 0.00 | 0.61 | 0.00 | 72 | 1012.4 |
| 20260510181509 | 28 | 114 | 14.5 | 14.5 | 0.00 | 0.61 | 0.00 | 73 | 1012.4 |
| 20260510181009 | 28 | 154 | 9.7 | 14.5 | 0.00 | 0.61 | 0.00 | 74 | 1012.4 |
| 20260510180509 | 28 | 217 | 4.8 | 14.5 | 0.00 | 0.61 | 0.00 | 74 | 1012.5 |
| 20260510180009 | 28 | 130 | 11.3 | 14.5 | 0.00 | 0.61 | 0.00 | 74 | 1012.6 |
| 20260510175509 | 27 | 76 | 3.2 | 19.3 | 0.00 | 0.61 | 0.00 | 74 | 1012.7 |
| 20260510174509 | 27 | 65 | 1.6 | 16.1 | 0.00 | 0.61 | 0.00 | 75 | 1012.9 |
| 20260510174009 | 27 | 104 | 6.4 | 9.7 | 0.00 | 0.61 | 0.00 | 75 | 1012.9 |
| 20260510173009 | 27 | 82 | 3.2 | 16.1 | 0.00 | 0.61 | 0.00 | 76 | 1013.1 |
| 20260510172508 | 27 | 98 | 9.7 | 16.1 | 0.00 | 0.61 | 0.00 | 76 | 1013.1 |
| 20260510171509 | 26 | 112 | 3.2 | 12.9 | 0.00 | 0.61 | 0.00 | 76 | 1013.2 |
| 20260510171008 | 26 | 82 | 8.0 | 12.9 | 0.00 | 0.61 | 0.00 | 76 | 1013.3 |
| 20260510170508 | 26 | 311 | 3.2 | 16.1 | 0.00 | 0.61 | 0.00 | 77 | 1013.4 |
| 20260510170008 | 26 | 121 | 3.2 | 16.1 | 0.00 | 0.61 | 0.00 | 77 | 1013.5 |
| 20260510165509 | 26 | 134 | 3.2 | 14.5 | 0.00 | 0.61 | 0.00 | 77 | 1013.5 |
| 20260510165009 | 26 | 169 | 14.5 | 19.3 | 0.00 | 0.61 | 0.00 | 77 | 1013.5 |
| 20260510164508 | 26 | 126 | 8.0 | 19.3 | 0.00 | 0.61 | 0.00 | 77 | 1013.6 |
| 20260510164008 | 26 | 107 | 6.4 | 11.3 | 0.00 | 0.61 | 0.00 | 77 | 1013.6 |
| 20260510163508 | 26 | 121 | 11.3 | 11.3 | 0.00 | 0.61 | 0.00 | 77 | 1013.6 |
| 20260510163008 | 26 | 20 | 1.6 | 12.9 | 0.00 | 0.61 | 0.00 | 78 | 1013.5 |
| 20260510162508 | 26 | 74 | 4.8 | 16.1 | 0.00 | 0.61 | 0.00 | 78 | 1013.5 |
| 20260510162008 | 26 | 328 | 1.6 | 16.1 | 0.00 | 0.61 | 0.00 | 78 | 1013.5 |
| 20260510161508 | 26 | 263 | 1.6 | 20.9 | 0.00 | 0.61 | 0.00 | 78 | 1013.5 |
| 20260510161007 | 26 | 82 | 14.5 | 20.9 | 0.00 | 0.61 | 0.00 | 78 | 1013.4 |
| 20260510160508 | 26 | 97 | 12.9 | 12.9 | 0.00 | 0.61 | 0.00 | 78 | 1013.4 |
| 20260510160007 | 26 | 113 | 3.2 | 12.9 | 0.00 | 0.61 | 0.00 | 78 | 1013.4 |
| 20260510155508 | 26 | 320 | 0.0 | 14.5 | 0.00 | 0.61 | 0.00 | 78 | 1013.4 |
| 20260510155007 | 25 | 344 | 4.8 | 14.5 | 0.00 | 0.61 | 0.00 | 78 | 1013.4 |
| 20260510154507 | 25 | 119 | 4.8 | 4.8 | 0.00 | 0.61 | 0.00 | 79 | 1013.3 |
| 20260510154007 | 25 | 206 | 4.8 | 11.3 | 0.00 | 0.61 | 0.00 | 79 | 1013.3 |
| 20260510153507 | 25 | 86 | 4.8 | 16.1 | 0.00 | 0.61 | 0.00 | 79 | 1013.3 |
| 20260510153007 | 25 | 108 | 16.1 | 16.1 | 0.00 | 0.61 | 0.00 | 79 | 1013.3 |
| 20260510152508 | 25 | 165 | 6.4 | 12.9 | 0.00 | 0.61 | 0.00 | 79 | 1013.3 |
| 20260510152037 | 25 | 109 | 11.3 | 11.3 | 0.00 | 0.61 | 0.00 | 79 | 1013.2 |
| 20260510151537 | 25 | 126 | 1.6 | 11.3 | 0.00 | 0.61 | 0.00 | 79 | 1013.2 |
| 20260510151037 | 25 | 134 | 4.8 | 11.3 | 0.00 | 0.61 | 0.00 | 79 | 1013.3 |
| 20260510150537 | 25 | 140 | 4.8 | 11.3 | 0.00 | 0.61 | 0.00 | 79 | 1013.2 |
| 20260510145036 | 25 | 115 | 1.6 | 6.4 | 0.00 | 0.61 | 0.00 | 79 | 1013.2 |
| 20260510144036 | 25 | 73 | 4.8 | 9.7 | 0.00 | 0.61 | 0.00 | 80 | 1012.8 |
| 20260510143036 | 24 | 105 | 4.8 | 8.0 | 0.00 | 0.61 | 0.00 | 80 | 1012.9 |
| 20260510142536 | 24 | 137 | 6.4 | 9.7 | 0.00 | 0.61 | 0.00 | 80 | 1012.8 |
| 20260510142036 | 24 | 138 | 4.8 | 9.7 | 0.00 | 0.61 | 0.00 | 80 | 1012.7 |
| 20260510141036 | 24 | 140 | 0.0 | 9.7 | 0.00 | 0.61 | 0.00 | 80 | 1012.6 |
| 20260510140536 | 23 | 117 | 1.6 | 9.7 | 0.00 | 0.61 | 0.00 | 80 | 1012.6 |
| 20260510135536 | 23 | 96 | 0.0 | 1.6 | 0.00 | 0.64 | 0.00 | 80 | 1012.4 |
| 20260510135036 | 23 | 94 | 0.0 | 6.4 | 0.00 | 0.64 | 0.00 | 81 | 1012.4 |
| 20260510133536 | 23 | 121 | 0.0 | 4.8 | 0.00 | 0.64 | 0.00 | 81 | 1012.3 |
| 20260510133036 | 23 | 78 | 1.6 | 8.0 | 0.00 | 0.64 | 0.00 | 81 | 1012.2 |
| 20260510132036 | 22 | 117 | 0.0 | 1.6 | 0.00 | 0.64 | 0.00 | 81 | 1011.9 |
| 20260510131036 | 22 | 153 | 1.6 | 3.2 | 0.00 | 0.64 | 0.00 | 81 | 1011.8 |
| 20260510130536 | 22 | 116 | 0.0 | 4.8 | 0.00 | 0.64 | 0.00 | 81 | 1011.5 |
| 20260510125036 | 21 | 121 | 0.0 | 4.8 | 0.00 | 0.64 | 0.00 | 82 | 1011.3 |
| 20260510124536 | 21 | 121 | 1.6 | 4.8 | 0.00 | 0.64 | 0.00 | 81 | 1011.3 |
| 20260510124036 | 21 | 127 | 0.0 | 0.0 | 0.00 | 0.64 | 0.00 | 82 | 1011.2 |
| 20260510123535 | 21 | 127 | 0.0 | 0.0 | 0.00 | 0.64 | 0.00 | 82 | 1011.2 |
| 20260510122535 | 21 | 127 | 0.0 | 0.0 | 0.00 | 0.64 | 0.00 | 82 | 1011.1 |
| 20260510122035 | 21 | 127 | 0.0 | 0.0 | 0.00 | 0.64 | 0.00 | 82 | 1011.0 |
| 20260510121535 | 21 | 127 | 0.0 | 0.0 | 0.00 | 0.64 | 0.00 | 82 | 1010.8 |
| 20260510121035 | 21 | 127 | 0.0 | 1.6 | 0.00 | 0.64 | 0.00 | 82 | 1010.7 |
| 20260510120535 | 21 | 127 | 1.6 | 1.6 | 0.00 | 0.64 | 0.00 | 82 | 1010.7 |
| 20260510120035 | 21 | 127 | 0.0 | 0.0 | 0.00 | 0.64 | 0.00 | 82 | 1010.6 |
| 20260510115535 | 21 | 127 | 0.0 | 1.6 | 0.00 | 0.64 | 0.00 | 82 | 1010.7 |
| 20260510115035 | 21 | 127 | 0.0 | 3.2 | 0.00 | 0.64 | 0.00 | 82 | 1010.5 |
| 20260510114535 | 21 | 127 | 1.6 | 3.2 | 0.00 | 0.64 | 0.00 | 82 | 1010.5 |
| 20260510113535 | 21 | 127 | 0.0 | 1.6 | 0.00 | 0.64 | 0.00 | 82 | 1010.4 |
| 20260510113035 | 21 | 127 | 0.0 | 3.2 | 0.00 | 0.64 | 0.00 | 82 | 1010.4 |
| 20260510112535 | 21 | 128 | 3.2 | 3.2 | 0.00 | 0.64 | 0.00 | 82 | 1010.3 |
| 20260510112035 | 21 | 221 | 0.0 | 1.6 | 0.00 | 0.64 | 0.00 | 82 | 1010.1 |
| 20260510111535 | 21 | 190 | 0.0 | 1.6 | 0.00 | 0.64 | 0.00 | 82 | 1010.1 |
| 20260510111035 | 21 | 260 | 0.0 | 1.6 | 0.00 | 0.64 | 0.00 | 82 | 1010.2 |
| 20260510110534 | 21 | 260 | 0.0 | 4.8 | 0.00 | 0.64 | 0.00 | 82 | 1010.2 |
| 20260510110035 | 21 | 205 | 1.6 | 6.4 | 0.00 | 0.64 | 0.00 | 82 | 1009.9 |
| 20260510105535 | 21 | 187 | 4.8 | 6.4 | 0.00 | 0.64 | 0.00 | 82 | 1009.8 |
| 20260510105034 | 21 | 231 | 3.2 | 4.8 | 0.00 | 0.64 | 0.00 | 82 | 1009.7 |
| 20260510104534 | 21 | 190 | 4.8 | 12.9 | 0.00 | 0.64 | 0.00 | 82 | 1009.7 |
| 20260510104034 | 21 | 211 | 1.6 | 12.9 | 0.00 | 0.64 | 0.00 | 82 | 1009.6 |
| 20260510103034 | 21 | 272 | 1.6 | 8.0 | 0.00 | 0.64 | 0.00 | 82 | 1009.6 |
| 20260510102534 | 21 | 197 | 1.6 | 8.0 | 0.00 | 0.64 | 0.00 | 82 | 1009.6 |
| 20260510101534 | 21 | 223 | 1.6 | 1.6 | 0.00 | 0.64 | 0.00 | 82 | 1009.8 |
| 20260510101034 | 21 | 219 | 0.0 | 3.2 | 0.00 | 0.64 | 0.00 | 81 | 1009.8 |
| 20260510100534 | 21 | 222 | 1.6 | 6.4 | 0.00 | 0.64 | 0.00 | 81 | 1009.8 |
| 20260510100034 | 21 | 246 | 0.0 | 9.7 | 0.00 | 0.64 | 0.00 | 82 | 1009.6 |
| 20260510095534 | 21 | 167 | 1.6 | 9.7 | 0.00 | 0.64 | 0.00 | 82 | 1009.5 |
| 20260510095034 | 21 | 188 | 3.2 | 4.8 | 0.00 | 0.64 | 0.00 | 82 | 1009.6 |
| 20260510094534 | 21 | 236 | 0.0 | 9.7 | 0.00 | 0.64 | 0.00 | 82 | 1009.7 |
| 20260510094034 | 21 | 207 | 9.7 | 9.7 | 0.00 | 0.64 | 0.00 | 82 | 1009.7 |
| 20260510093534 | 21 | 232 | 3.2 | 4.8 | 0.00 | 0.64 | 0.00 | 82 | 1009.7 |
| 20260510093034 | 21 | 182 | 1.6 | 3.2 | 0.00 | 0.64 | 0.00 | 82 | 1009.7 |
| 20260510092534 | 21 | 219 | 0.0 | 3.2 | 0.00 | 0.64 | 0.00 | 82 | 1009.7 |
| 20260510092034 | 21 | 265 | 0.0 | 6.4 | 0.00 | 0.64 | 0.00 | 82 | 1009.7 |
| 20260510091534 | 21 | 221 | 1.6 | 8.0 | 0.00 | 0.64 | 0.00 | 82 | 1009.7 |
| 20260510090034 | 21 | 150 | 1.6 | 4.8 | 0.00 | 0.66 | 0.00 | 82 | 1009.7 |
| 20260510085534 | 21 | 129 | 0.0 | 0.0 | 0.00 | 0.66 | 0.00 | 82 | 1009.6 |
| 20260510085033 | 21 | 187 | 0.0 | 0.0 | 0.00 | 0.66 | 0.00 | 82 | 1009.6 |
| 20260510084534 | 21 | 263 | 0.0 | 0.0 | 0.00 | 0.66 | 0.00 | 82 | 1009.7 |
| 20260510084034 | 21 | 167 | 0.0 | 0.0 | 0.00 | 0.69 | 0.00 | 82 | 1009.7 |
| 20260510083533 | 21 | 167 | 0.0 | 0.0 | 0.00 | 0.69 | 0.00 | 82 | 1009.7 |
| 20260510082533 | 21 | 167 | 0.0 | 0.0 | 0.00 | 0.69 | 0.00 | 81 | 1009.6 |
| 20260510082033 | 21 | 167 | 0.0 | 0.0 | 0.00 | 0.69 | 0.00 | 81 | 1009.7 |
| 20260510081533 | 21 | 167 | 0.0 | 0.0 | 0.00 | 0.69 | 0.00 | 81 | 1009.7 |
| 20260510081033 | 21 | 167 | 0.0 | 0.0 | 0.00 | 0.69 | 0.00 | 81 | 1009.8 |
| 20260510080533 | 21 | 167 | 0.0 | 0.0 | 0.00 | 0.69 | 0.00 | 81 | 1009.8 |
| 20260510080033 | 21 | 167 | 0.0 | 0.0 | 0.00 | 0.69 | 0.00 | 81 | 1009.8 |
| 20260510075533 | 21 | 167 | 0.0 | 0.0 | 0.00 | 0.69 | 0.00 | 81 | 1010.1 |
| 20260510075033 | 21 | 167 | 0.0 | 0.0 | 0.00 | 0.69 | 0.00 | 81 | 1010.0 |
| 20260510074033 | 21 | 167 | 0.0 | 0.0 | 0.00 | 0.69 | 0.00 | 81 | 1010.0 |
| 20260510073533 | 21 | 167 | 0.0 | 0.0 | 0.00 | 0.69 | 0.00 | 81 | 1010.0 |
| 20260510072533 | 21 | 167 | 0.0 | 0.0 | 0.00 | 0.69 | 0.00 | 81 | 1010.0 |
| 20260510072033 | 21 | 167 | 0.0 | 0.0 | 0.00 | 0.69 | 0.00 | 80 | 1010.1 |
| 20260510071033 | 21 | 167 | 0.0 | 0.0 | 0.00 | 0.69 | 0.00 | 80 | 1010.2 |
| 20260510070533 | 21 | 167 | 0.0 | 0.0 | 0.00 | 0.69 | 0.00 | 80 | 1010.2 |
| 20260510065533 | 21 | 237 | 0.0 | 0.0 | 0.00 | 0.69 | 0.00 | 80 | 1010.1 |
| 20260510065032 | 21 | 237 | 0.0 | 0.0 | 0.00 | 0.69 | 0.00 | 80 | 1010.1 |
| 20260510064533 | 21 | 237 | 0.0 | 0.0 | 0.00 | 0.69 | 0.00 | 80 | 1010.0 |
| 20260510064032 | 21 | 237 | 0.0 | 0.0 | 0.00 | 0.69 | 0.00 | 80 | 1010.0 |
| 20260510063532 | 21 | 237 | 0.0 | 0.0 | 0.00 | 0.69 | 0.00 | 80 | 1009.9 |
| 20260510062532 | 21 | 237 | 0.0 | 0.0 | 0.00 | 0.69 | 0.00 | 80 | 1010.0 |
| 20260510062032 | 21 | 237 | 0.0 | 0.0 | 0.00 | 0.69 | 0.00 | 79 | 1009.9 |
| 20260510061532 | 21 | 237 | 0.0 | 0.0 | 0.00 | 0.69 | 0.00 | 79 | 1009.9 |
| 20260510061032 | 22 | 237 | 0.0 | 0.0 | 0.00 | 0.69 | 0.00 | 79 | 1009.8 |
| 20260510060532 | 22 | 215 | 0.0 | 1.6 | 0.00 | 0.69 | 0.00 | 79 | 1009.8 |
| 20260510060032 | 22 | 171 | 0.0 | 1.6 | 0.00 | 0.69 | 0.00 | 79 | 1009.9 |
| 20260510055532 | 22 | 145 | 0.0 | 0.0 | 0.00 | 0.69 | 0.00 | 79 | 1009.6 |
| 20260510054531 | 22 | 145 | 0.0 | 6.4 | 0.00 | 0.69 | 0.00 | 79 | 1009.6 |
| 20260510053531 | 22 | 121 | 0.0 | 6.4 | 0.00 | 0.69 | 0.00 | 79 | 1009.7 |
| 20260510053031 | 22 | 142 | 4.8 | 6.4 | 0.00 | 0.69 | 0.00 | 80 | 1009.8 |
| 20260510052531 | 22 | 111 | 3.2 | 3.2 | 0.00 | 0.69 | 0.00 | 80 | 1009.9 |
| 20260510052031 | 22 | 111 | 0.0 | 0.0 | 0.00 | 0.69 | 0.00 | 80 | 1009.9 |
| 20260510051031 | 22 | 111 | 0.0 | 0.0 | 0.00 | 0.69 | 0.00 | 80 | 1009.8 |
| 20260510050531 | 22 | 111 | 0.0 | 0.0 | 0.00 | 0.69 | 0.00 | 80 | 1009.8 |
| 20260510050031 | 22 | 111 | 0.0 | 0.0 | 0.00 | 0.69 | 0.00 | 80 | 1009.8 |
| 20260510045531 | 22 | 111 | 0.0 | 0.0 | 0.00 | 0.69 | 0.69 | 80 | 1009.6 |
| 20260510045031 | 22 | 111 | 0.0 | 0.0 | 0.00 | 0.69 | 0.69 | 80 | 1009.6 |
| 20260510044531 | 22 | 111 | 0.0 | 0.0 | 0.00 | 0.69 | 0.69 | 79 | 1009.5 |
| 20260510044031 | 22 | 111 | 0.0 | 0.0 | 0.00 | 0.69 | 0.69 | 79 | 1009.6 |
| 20260510043531 | 23 | 111 | 0.0 | 0.0 | 0.00 | 0.69 | 0.69 | 79 | 1009.7 |
| 20260510043031 | 23 | 111 | 0.0 | 0.0 | 0.00 | 0.69 | 0.69 | 79 | 1009.6 |
| 20260510042530 | 23 | 111 | 0.0 | 0.0 | 0.00 | 0.69 | 0.69 | 79 | 1009.6 |
| 20260510042030 | 23 | 111 | 0.0 | 3.2 | 0.00 | 0.69 | 0.69 | 79 | 1009.6 |
| 20260510041030 | 23 | 111 | 0.0 | 0.0 | 0.00 | 0.69 | 0.69 | 79 | 1009.5 |
| 20260510040530 | 23 | 111 | 0.0 | 0.0 | 0.00 | 0.69 | 0.69 | 79 | 1009.5 |
| 20260510040030 | 23 | 111 | 0.0 | 0.0 | 0.00 | 0.69 | 0.69 | 78 | 1009.5 |
| 20260510035030 | 24 | 111 | 0.0 | 0.0 | 0.00 | 0.69 | 0.69 | 78 | 1009.2 |
| 20260510034530 | 24 | 111 | 0.0 | 0.0 | 0.00 | 0.69 | 0.69 | 78 | 1009.2 |
| 20260510034030 | 24 | 111 | 0.0 | 0.0 | 0.00 | 0.69 | 0.69 | 77 | 1009.1 |
| 20260510033530 | 24 | 111 | 0.0 | 0.0 | 0.00 | 0.69 | 0.69 | 77 | 1009.1 |
| 20260510033030 | 25 | 111 | 0.0 | 0.0 | 0.00 | 0.69 | 0.69 | 77 | 1009.1 |
| 20260510032530 | 25 | 111 | 0.0 | 0.0 | 0.00 | 0.69 | 0.69 | 77 | 1009.1 |
| 20260510032030 | 25 | 111 | 0.0 | 0.0 | 0.00 | 0.69 | 0.69 | 77 | 1009.0 |
| 20260510031530 | 25 | 111 | 0.0 | 0.0 | 0.00 | 0.69 | 0.69 | 76 | 1008.9 |
| 20260510030530 | 25 | 111 | 0.0 | 0.0 | 0.00 | 0.69 | 0.69 | 76 | 1008.7 |
| 20260510030030 | 25 | 111 | 0.0 | 0.0 | 0.00 | 0.69 | 0.69 | 75 | 1008.6 |
| 20260510025530 | 25 | 111 | 0.0 | 0.0 | 0.00 | 0.69 | 0.69 | 75 | 1008.5 |
| 20260510025029 | 26 | 111 | 0.0 | 0.0 | 0.00 | 0.69 | 0.69 | 75 | 1008.4 |
| 20260510024530 | 26 | 111 | 0.0 | 0.0 | 0.00 | 0.69 | 0.69 | 75 | 1008.3 |
| 20260510024029 | 26 | 111 | 0.0 | 0.0 | 0.00 | 0.69 | 0.69 | 75 | 1008.3 |
| 20260510023530 | 26 | 111 | 0.0 | 1.6 | 0.00 | 0.69 | 0.69 | 74 | 1008.4 |
| 20260510023029 | 26 | 111 | 0.0 | 3.2 | 0.00 | 0.69 | 0.69 | 74 | 1008.3 |
| 20260510021529 | 27 | 128 | 0.0 | 1.6 | 0.00 | 0.69 | 0.69 | 73 | 1008.3 |
| 20260510021029 | 27 | 128 | 0.0 | 0.0 | 0.00 | 0.69 | 0.69 | 73 | 1008.2 |
| 20260510020029 | 27 | 128 | 0.0 | 6.4 | 0.00 | 0.69 | 0.69 | 73 | 1008.0 |
| 20260510015529 | 27 | 128 | 1.6 | 6.4 | 0.00 | 0.69 | 0.69 | 73 | 1007.9 |
| 20260510015029 | 27 | 155 | 0.0 | 1.6 | 0.00 | 0.69 | 0.69 | 72 | 1007.9 |
| 20260510014029 | 28 | 140 | 8.0 | 11.3 | 0.00 | 0.69 | 0.69 | 72 | 1007.8 |
| 20260510012529 | 28 | 134 | 4.8 | 6.4 | 0.00 | 0.69 | 0.69 | 71 | 1007.6 |
| 20260510011529 | 28 | 108 | 0.0 | 6.4 | 0.00 | 0.69 | 0.69 | 70 | 1007.5 |
| 20260510010028 | 29 | 143 | 0.0 | 3.2 | 0.00 | 0.69 | 0.69 | 69 | 1007.4 |
| 20260510005528 | 30 | 143 | 1.6 | 3.2 | 0.00 | 0.69 | 0.69 | 69 | 1007.5 |
| 20260510005028 | 30 | 133 | 0.0 | 0.0 | 0.00 | 0.69 | 0.69 | 69 | 1007.5 |
| 20260510004528 | 30 | 133 | 0.0 | 0.0 | 0.00 | 0.69 | 0.69 | 68 | 1007.5 |
| 20260510004028 | 30 | 90 | 0.0 | 0.0 | 0.00 | 0.69 | 0.69 | 69 | 1007.4 |
| 20260510002528 | 30 | 153 | 0.0 | 1.6 | 0.00 | 0.69 | 0.69 | 67 | 1007.3 |
| 20260510002028 | 30 | 105 | 0.0 | 4.8 | 0.00 | 0.69 | 0.69 | 68 | 1007.2 |
| 20260510001528 | 30 | 94 | 1.6 | 4.8 | 0.00 | 0.69 | 0.69 | 67 | 1007.3 |
| 20260510001028 | 30 | 119 | 0.0 | 4.8 | 0.00 | 0.69 | 0.69 | 67 | 1007.2 |
| 20260510000528 | 30 | 119 | 1.6 | 4.8 | 0.00 | 0.69 | 0.69 | 68 | 1007.2 |
| 20260510000028 | 30 | 127 | 0.0 | 1.6 | 0.00 | 0.69 | 0.69 | 66 | 1007.2 |
| 20260509235528 | 30 | 113 | 0.0 | 0.0 | 0.00 | 0.69 | 0.69 | 66 | 1007.1 |
| 20260509235028 | 30 | 115 | 0.0 | 3.2 | 0.00 | 0.69 | 0.69 | 67 | 1007.1 |
| 20260509234528 | 30 | 116 | 0.0 | 3.2 | 0.00 | 0.69 | 0.69 | 65 | 1007.0 |
| 20260509234027 | 30 | 139 | 0.0 | 4.8 | 0.00 | 0.69 | 0.69 | 66 | 1007.0 |
| 20260509233527 | 30 | 97 | 1.6 | 4.8 | 0.00 | 0.69 | 0.69 | 66 | 1006.9 |
| 20260509233027 | 30 | 123 | 0.0 | 4.8 | 0.00 | 0.69 | 0.69 | 66 | 1006.9 |